"Timestamp","TZ","WindDir_Mean (deg)","WindSpd_Mean (km/h)","WindSpd_Min (km/h)","WindSpd_Max (km/h)","Temp_Mean (deg)","RH_Mean (%)","MSLP_Mean (hPa)","Rain_Acc (mm)","Rain_Intensity (mm/h)","Hail_Acc (hits/cm2)","Hail_Intensity (hits/cm2hr)","Solar_Mean (W/m2)"
2020/07/16 00:00:00.013,n,280,7.56,5.76,8.64,13.4,53.2,1016.32,0,0,0,0,0.027885
2020/07/16 00:01:00.000,n,245,11.88,9.72,17.28,13.4,53.1,1016.32,0,0,0,0,0.027885
2020/07/16 00:02:00.000,n,277,8.28,6.12,11.16,13.4,53.2,1016.32,0,0,0,0,0.030479
2020/07/16 00:03:00.000,n,252,10.440002,9.72,11.16,13.4,53.3,1016.42,0,0,0,0,0.030479
2020/07/16 00:04:00.003,n,284,5.76,4.32,7.56,13.4,53.4,1016.32,0,0,0,0,0.031357
2020/07/16 00:05:00.001,n,245,11.88,10.8,13.68,13.3,53.5,1016.32,0,0,0,0,0.026131
2020/07/16 00:06:00.000,n,264,10.08,6.84,15.48,13.3,53.4,1016.32,0,0,0,0,0.031357
2020/07/16 00:07:00.010,n,256,12.24,9.36,15.84,13.3,53.3,1016.32,0,0,0,0,0.030479
2020/07/16 00:08:00.007,n,252,5.04,3.6,7.56,13.3,53.4,1016.32,0,0,0,0,0.027008
2020/07/16 00:09:00.006,n,202,4.68,1.08,8.28,13.3,53.5,1016.32,0,0,0,0,0.031357
2020/07/16 00:10:00.000,n,239,14.04,12.96,15.84,13.3,53.4,1016.32,0,0,0,0,0.027008
2020/07/16 00:11:00.000,n,266,2.52,1.08,3.24,13.3,53.6,1016.32,0,0,0,0,0.024414
2020/07/16 00:12:00.000,n,255,10.08,7.92,11.88,13.3,53.5,1016.22,0,0,0,0,0.022659
2020/07/16 00:13:00.000,n,258,17.28,15.48,18,13.3,53.5,1016.22,0,0,0,0,0.022659
2020/07/16 00:14:00.008,n,253,12.6,9,14.76,13.3,53.6,1016.22,0,0,0,0,0.02964
2020/07/16 00:15:00.005,n,264,9.36,8.28,10.8,13.3,53.7,1016.22,0,0,0,0,0.028763
2020/07/16 00:16:00.002,n,229,4.68,0.72,8.28,13.2,53.8,1016.22,0,0,0,0,0.028763
2020/07/16 00:17:00.000,n,271,9.36,8.28,10.8,13.2,53.8,1016.12,0,0,0,0,0.025253
2020/07/16 00:18:00.012,n,250,9.72,8.28,10.440002,13.2,53.9,1016.12,0,0,0,0,0.025253
2020/07/16 00:19:00.000,n,259,7.92,7.2,9.36,13.2,54,1016.12,0,0,0,0,0.027008
2020/07/16 00:20:00.000,n,252,12.24,10.08,13.32,13.2,54,1016.12,0,0,0,0,0.028763
2020/07/16 00:21:00.000,n,267,11.52,9.36,12.96,13.2,54,1016.12,0,0,0,0,0.027885
2020/07/16 00:22:00.005,n,274,9,7.2,11.16,13.2,54,1016.12,0,0,0,0,0.031357
2020/07/16 00:23:00.004,n,268,9,8.28,9.72,13.2,54,1016.12,0,0,0,0,0.030479
2020/07/16 00:24:00.000,n,273,10.8,9,12.24,13.2,54.1,1016.02,0,0,0,0,0.026131
2020/07/16 00:25:00.000,n,251,11.16,10.440002,12.6,13.1,54.2,1016.02,0,0,0,0,0.022659
2020/07/16 00:26:00.010,n,271,14.76,14.4,15.84,13.1,54.1,1016.02,0,0,0,0,0.030479
2020/07/16 00:27:00.007,n,270,14.4,13.32,14.76,13.1,54,1016.02,0,0,0,0,0.023537
2020/07/16 00:28:00.000,n,269,11.52,9.72,12.96,13.1,54.1,1016.02,0,0,0,0,0.023537
2020/07/16 00:29:00.000,n,260,12.96,10.08,16.919998,13.1,54,1015.92,0,0,0,0,0.027885
2020/07/16 00:30:00.000,n,243,11.88,9.36,15.12,13.1,54,1015.92,0,0,0,0,0.023537
2020/07/16 00:31:00.000,n,248,16.56,15.84,17.64,13.1,54,1015.92,0,0,0,0,0.027885
2020/07/16 00:32:00.009,n,257,9.72,2.16,12.96,13.1,54,1015.92,0,0,0,0,0.021782
2020/07/16 00:33:00.006,n,269,7.2,2.16,11.16,13.1,54.2,1015.82,0,0,0,0,0.023537
2020/07/16 00:34:00.004,n,259,9.36,7.92,11.88,13.1,54.1,1015.82,0,0,0,0,0.025253
2020/07/16 00:35:00.000,n,244,7.56,7.2,7.92,13.1,54.2,1015.92,0,0,0,0,0.025253
2020/07/16 00:36:00.013,n,267,11.16,9.36,12.24,13.1,54.1,1015.92,0,0,0,0,0.021782
2020/07/16 00:37:00.000,n,280,14.4,13.32,15.84,13.1,54,1015.92,0,0,0,0,0.024414
2020/07/16 00:38:00.000,n,210,5.76,4.32,8.28,13.1,54.2,1015.92,0,0,0,0,0.023537
2020/07/16 00:39:00.004,n,254,7.56,7.2,8.28,13.1,54.2,1015.92,0,0,0,0,0.027008
2020/07/16 00:40:00.001,n,270,13.68,12.24,15.84,13.1,54.1,1015.82,0,0,0,0,0.025253
2020/07/16 00:41:00.000,n,256,10.8,10.08,11.52,13.1,54.2,1015.82,0,0,0,0,0.025253
2020/07/16 00:42:00.000,n,273,8.64,6.12,10.08,13.1,54.3,1015.82,0,0,0,0,0.026131
2020/07/16 00:43:00.008,n,295,6.84,6.12,9.36,13,54.4,1015.82,0,0,0,0,0.026131
2020/07/16 00:44:00.005,n,259,10.08,8.64,11.52,13,54.4,1015.82,0,0,0,0,0.020065
2020/07/16 00:45:00.001,n,244,8.64,6.84,10.08,13,54.4,1015.82,0,0,0,0,0.020065
2020/07/16 00:46:00.000,n,278,3.6,2.16,7.56,13,54.6,1015.82,0,0,0,0,0.023537
2020/07/16 00:47:00.000,n,244,10.8,9,11.52,13,54.5,1015.82,0,0,0,0,0.021782
2020/07/16 00:48:00.000,n,240,12.24,9.36,13.68,13,54.5,1015.82,0,0,0,0,0.021782
2020/07/16 00:49:00.006,n,273,11.16,10.440002,11.88,13,54.6,1015.82,0,0,0,0,0.022659
2020/07/16 00:50:00.004,n,251,13.68,12.96,15.48,12.9,54.6,1015.82,0,0,0,0,0.023537
2020/07/16 00:51:00.001,n,265,7.2,6.48,7.92,12.9,54.7,1015.82,0,0,0,0,0.015717
2020/07/16 00:52:00.000,n,272,12.6,10.8,13.68,12.9,54.7,1015.82,0,0,0,0,0.016556
2020/07/16 00:53:00.011,n,277,12.96,10.440002,14.76,12.9,54.8,1015.82,0,0,0,0,0.017433
2020/07/16 00:54:00.008,n,236,8.28,7.56,9.36,12.9,54.9,1015.82,0,0,0,0,0.026131
2020/07/16 00:55:00.000,n,260,12.24,9.72,13.68,12.9,54.8,1015.82,0,0,0,0,0.030479
2020/07/16 00:56:00.000,n,224,3.96,2.88,5.04,12.9,55,1015.82,0,0,0,0,0.032234
2020/07/16 00:57:00.000,n,267,9.36,8.64,10.08,12.9,55,1015.92,0,0,0,0,0.031395
2020/07/16 00:58:00.000,n,260,10.440002,7.92,13.32,12.8,55.1,1015.92,0,0,0,0,0.028763
2020/07/16 00:59:00.004,n,258,7.56,6.48,9.36,12.8,55,1015.92,0,0,0,0,0.028763
2020/07/16 01:00:00.001,n,250,7.56,7.2,7.92,12.8,55.1,1015.92,0,0,0,0,0.02964
2020/07/16 01:01:00.000,n,234,3.96,2.16,5.76,12.8,55.2,1015.92,0,0,0,0,0.028763
2020/07/16 01:02:00.012,n,251,12.6,11.88,13.32,12.8,55.1,1015.92,0,0,0,0,0.027885
2020/07/16 01:03:00.009,n,263,5.04,2.88,8.28,12.8,55.2,1015.92,0,0,0,0,0.028763
2020/07/16 01:04:00.000,n,253,10.440002,9.36,11.52,12.8,55.1,1015.92,0,0,0,0,0.026131
2020/07/16 01:05:00.002,n,266,6.12,4.68,7.92,12.8,55.3,1015.92,0,0,0,0,0.026131
2020/07/16 01:06:00.000,n,264,7.2,6.12,8.64,12.8,55.4,1015.92,0,0,0,0,0.027046
2020/07/16 01:07:00.000,n,245,13.32,11.52,14.04,12.8,55.3,1015.92,0,0,0,0,0.025253
2020/07/16 01:08:00.000,n,245,6.12,2.16,9.36,12.8,55.3,1015.82,0,0,0,0,0.028763
2020/07/16 01:09:00.008,n,250,12.24,10.08,13.32,12.7,55.3,1015.82,0,0,0,0,0.027046
2020/07/16 01:10:00.005,n,269,16.919998,15.48,18,12.7,55.2,1015.82,0,0,0,0,0.027046
2020/07/16 01:11:00.002,n,253,10.08,9.36,10.440002,12.7,55.4,1015.82,0,0,0,0,0.031395
2020/07/16 01:12:00.015,n,266,10.08,6.12,11.52,12.7,55.4,1015.82,0,0,0,0,0.027885
2020/07/16 01:13:00.000,n,277,8.64,5.4,10.08,12.7,55.5,1015.82,0,0,0,0,0.02964
2020/07/16 01:14:00.000,n,268,14.76,14.04,15.48,12.7,55.3,1015.82,0,0,0,0,0.022697
2020/07/16 01:15:00.000,n,242,10.8,9.72,12.6,12.7,55.6,1015.82,0,0,0,0,0.021782
2020/07/16 01:16:00.003,n,298,10.08,7.56,12.96,12.7,55.5,1015.82,0,0,0,0,0.026131
2020/07/16 01:17:00.001,n,280,8.64,8.28,9.36,12.7,55.6,1015.92,0,0,0,0,0.022697
2020/07/16 01:18:00.000,n,246,7.56,6.84,9,12.7,55.7,1015.82,0,0,0,0,0.028763
2020/07/16 01:19:00.010,n,281,9.36,6.84,12.24,12.6,55.7,1015.82,0,0,0,0,0.026131
2020/07/16 01:20:00.007,n,270,12.96,11.52,16.56,12.6,55.6,1015.82,0,0,0,0,0.024414
2020/07/16 01:21:00.005,n,249,6.84,3.24,9.36,12.6,55.7,1015.82,0,0,0,0,0.021782
2020/07/16 01:22:00.001,n,280,4.68,1.08,10.440002,12.6,55.7,1015.82,0,0,0,0,0.024414
2020/07/16 01:23:00.000,n,260,13.32,12.6,14.04,12.6,55.7,1015.82,0,0,0,0,0.027046
2020/07/16 01:24:00.000,n,280,8.28,5.4,9.72,12.6,55.8,1015.72,0,0,0,0,0.021782
2020/07/16 01:25:00.000,n,246,12.6,10.440002,15.12,12.6,55.8,1015.72,0,0,0,0,0.027885
2020/07/16 01:26:00.006,n,284,10.08,9,11.88,12.6,55.9,1015.72,0,0,0,0,0.028763
2020/07/16 01:27:00.003,n,256,16.919998,16.2,18,12.6,55.6,1015.72,0,0,0,0,0.025253
2020/07/16 01:28:00.000,n,267,10.440002,9.36,11.52,12.6,55.6,1015.72,0,0,0,0,0.020065
2020/07/16 01:29:00.013,n,278,11.88,9.72,13.68,12.6,55.7,1015.72,0,0,0,0,0.028763
2020/07/16 01:30:00.011,n,253,9,5.76,11.52,12.6,55.9,1015.72,0,0,0,0,0.020905
2020/07/16 01:31:00.000,n,264,9,8.28,10.440002,12.6,55.9,1015.72,0,0,0,0,0.021782
2020/07/16 01:32:00.000,n,258,15.12,14.04,16.2,12.6,55.8,1015.72,0,0,0,0,0.025253
2020/07/16 01:33:00.002,n,265,14.4,10.8,17.64,12.6,55.7,1015.72,0,0,0,0,0.024414
2020/07/16 01:34:00.000,n,248,11.52,9.72,13.68,12.6,55.9,1015.62,0,0,0,0,0.019188
2020/07/16 01:35:00.000,n,269,9.36,6.12,11.88,12.5,55.8,1015.62,0,0,0,0,0.019188
2020/07/16 01:36:00.010,n,267,20.519998,18.72,23.04,12.5,55.6,1015.62,0,0,0,0,0.020905
2020/07/16 01:37:00.007,n,265,10.440002,9.36,12.24,12.6,55.8,1015.62,0,0,0,0,0.018311
2020/07/16 01:38:00.004,n,241,11.16,10.08,12.6,12.6,55.9,1015.62,0,0,0,0,0.020905
2020/07/16 01:39:00.001,n,278,12.24,10.08,16.2,12.6,55.9,1015.72,0,0,0,0,0.022697
2020/07/16 01:40:00.000,n,268,9,7.92,10.08,12.5,55.9,1015.72,0,0,0,0,0.019188
2020/07/16 01:41:00.000,n,268,10.08,7.56,11.88,12.5,55.9,1015.72,0,0,0,0,0.020905
2020/07/16 01:42:00.000,n,261,9,7.2,10.8,12.5,56,1015.72,0,0,0,0,0.014839
2020/07/16 01:43:00.007,n,242,9,8.64,10.08,12.5,55.9,1015.72,0,0,0,0,0.016556
2020/07/16 01:44:00.004,n,273,7.2,5.4,9,12.5,55.9,1015.72,0,0,0,0,0.030479
2020/07/16 01:45:00.000,n,263,4.68,2.88,5.76,12.5,56,1015.72,0,0,0,0,0.033073
2020/07/16 01:46:00.011,n,51,1.8,0.72,3.6,12.5,57,1015.72,0,0,0,0,0.034828
2020/07/16 01:47:00.008,n,264,17.64,15.84,20.16,12.5,55.7,1015.72,0,0,0,0,0.035706
2020/07/16 01:48:00.004,n,256,10.8,8.28,12.96,12.5,55.9,1015.72,0,0,0,0,0.033073
2020/07/16 01:49:00.002,n,264,9.36,7.2,11.88,12.5,55.8,1015.72,0,0,0,0,0.030479
2020/07/16 01:50:00.000,n,268,11.52,6.84,12.96,12.5,55.7,1015.72,0,0,0,0,0.033951
2020/07/16 01:51:00.000,n,239,12.6,11.52,13.32,12.5,55.8,1015.72,0,0,0,0,0.035706
2020/07/16 01:52:00.000,n,264,12.24,9.72,13.68,12.5,55.6,1015.72,0,0,0,0,0.032196
2020/07/16 01:53:00.005,n,262,7.2,6.48,7.92,12.5,55.8,1015.72,0,0,0,0,0.030479
2020/07/16 01:54:00.002,n,270,10.08,9.36,10.8,12.5,55.8,1015.72,0,0,0,0,0.029602
2020/07/16 01:55:00.000,n,248,7.92,7.56,9,12.5,55.9,1015.72,0,0,0,0,0.031357
2020/07/16 01:56:00.013,n,226,5.76,2.16,8.28,12.5,55.9,1015.72,0,0,0,0,0.031357
2020/07/16 01:57:00.010,n,265,8.64,6.84,11.52,12.5,55.9,1015.72,0,0,0,0,0.027847
2020/07/16 01:58:00.000,n,246,9.36,8.28,11.16,12.5,55.8,1015.72,0,0,0,0,0.032196
2020/07/16 01:59:00.000,n,256,12.96,11.52,14.76,12.5,55.8,1015.72,0,0,0,0,0.031357
2020/07/16 02:00:00.000,n,268,13.32,12.24,14.04,12.5,55.6,1015.72,0,0,0,0,0.030479
2020/07/16 02:01:00.000,n,269,13.32,11.88,14.76,12.5,55.6,1015.72,0,0,0,0,0.031357
2020/07/16 02:02:00.000,n,247,5.04,4.32,6.48,12.5,55.8,1015.72,0,0,0,0,0.030479
2020/07/16 02:03:00.008,n,255,6.84,5.76,10.08,12.5,55.9,1015.62,0,0,0,0,0.029602
2020/07/16 02:04:00.005,n,265,11.88,11.52,12.24,12.4,55.8,1015.62,0,0,0,0,0.032196
2020/07/16 02:05:00.002,n,263,8.28,7.2,9.36,12.4,55.7,1015.62,0,0,0,0,0.031357
2020/07/16 02:06:00.015,n,266,10.08,7.92,11.16,12.4,55.9,1015.72,0,0,0,0,0.029602
2020/07/16 02:07:00.000,n,250,14.4,12.96,15.12,12.4,55.8,1015.62,0,0,0,0,0.028725
2020/07/16 02:08:00.000,n,210,7.2,6.12,7.92,12.4,56,1015.62,0,0,0,0,0.032196
2020/07/16 02:09:00.000,n,264,11.52,10.8,11.88,12.4,56,1015.62,0,0,0,0,0.029602
2020/07/16 02:10:00.004,n,254,11.52,9.72,12.96,12.4,56,1015.72,0,0,0,0,0.032196
2020/07/16 02:11:00.001,n,244,7.2,6.12,8.64,12.4,56,1015.72,0,0,0,0,0.034828
2020/07/16 02:12:00.000,n,244,10.8,10.440002,11.52,12.4,56,1015.72,0,0,0,0,0.030479
2020/07/16 02:13:00.010,n,245,5.76,5.4,6.12,12.4,56.1,1015.72,0,0,0,0,0.031357
2020/07/16 02:14:00.008,n,246,2.52,1.8,3.24,12.4,56.2,1015.72,0,0,0,0,0.029602
2020/07/16 02:15:00.005,n,242,6.12,5.04,6.48,12.4,56.2,1015.72,0,0,0,0,0.031357
2020/07/16 02:16:00.003,n,216,3.24,2.52,4.68,12.4,56.2,1015.72,0,0,0,0,0.031357
2020/07/16 02:17:00.000,n,271,2.52,1.8,3.96,12.3,56.4,1015.72,0,0,0,0,0.028725
2020/07/16 02:18:00.000,n,268,8.28,7.56,8.28,12.3,56.3,1015.72,0,0,0,0,0.026131
2020/07/16 02:19:00.000,n,250,10.08,8.28,11.52,12.3,56.2,1015.72,0,0,0,0,0.030479
2020/07/16 02:20:00.007,n,259,9.36,9,11.16,12.3,56.3,1015.72,0,0,0,0,0.027847
2020/07/16 02:21:00.004,n,240,8.64,6.12,10.08,12.3,56.1,1015.62,0,0,0,0,0.028725
2020/07/16 02:22:00.002,n,250,15.48,14.4,16.56,12.4,55.9,1015.62,0,0,0,0,0.027008
2020/07/16 02:23:00.000,n,232,8.28,6.48,9.36,12.4,56,1015.62,0,0,0,0,0.026131
2020/07/16 02:24:00.011,n,248,8.28,7.56,9,12.4,56.1,1015.62,0,0,0,0,0.027847
2020/07/16 02:25:00.000,n,247,10.8,9,14.76,12.4,56,1015.72,0,0,0,0,0.026131
2020/07/16 02:26:00.000,n,260,7.56,6.12,9,12.4,56,1015.72,0,0,0,0,0.028725
2020/07/16 02:27:00.002,n,249,5.76,3.96,7.2,12.4,56.1,1015.72,0,0,0,0,0.027847
2020/07/16 02:28:00.000,n,269,8.28,7.2,10.440002,12.4,56,1015.72,0,0,0,0,0.027008
2020/07/16 02:29:00.000,n,267,3.96,2.88,5.04,12.4,56.1,1015.72,0,0,0,0,0.027008
2020/07/16 02:30:00.009,n,261,10.8,9.72,12.24,12.4,56,1015.72,0,0,0,0,0.026131
2020/07/16 02:31:00.006,n,249,3.6,2.16,4.68,12.4,56.1,1015.72,0,0,0,0,0.024376
2020/07/16 02:32:00.003,n,278,8.28,6.48,10.08,12.4,55.8,1015.62,0,0,0,0,0.032196
2020/07/16 02:33:00.001,n,275,11.88,11.16,12.96,12.4,55.7,1015.62,0,0,0,0,0.032196
2020/07/16 02:34:00.000,n,294,12.96,10.08,16.2,12.4,55.5,1015.62,0,0,0,0,0.027008
2020/07/16 02:35:00.000,n,279,10.08,7.92,11.52,12.4,55.4,1015.62,0,0,0,0,0.029602
2020/07/16 02:36:00.000,n,241,9.36,7.92,10.8,12.5,55.5,1015.62,0,0,0,0,0.022659
2020/07/16 02:37:00.005,n,278,15.48,14.76,16.56,12.5,55.2,1015.52,0,0,0,0,0.027008
2020/07/16 02:38:00.003,n,262,13.32,11.88,14.76,12.4,55.1,1015.52,0,0,0,0,0.024376
2020/07/16 02:39:00.000,n,247,10.440002,8.64,12.24,12.4,55.3,1015.52,0,0,0,0,0.027008
2020/07/16 02:40:00.000,n,300,4.32,2.52,6.12,12.4,55.5,1015.62,0,0,0,0,0.025253
2020/07/16 02:41:00.009,n,240,12.6,11.88,14.4,12.4,55.3,1015.62,0,0,0,0,0.025253
2020/07/16 02:42:00.006,n,254,7.92,6.48,9.72,12.4,55.5,1015.62,0,0,0,0,0.022659
2020/07/16 02:43:00.000,n,275,11.16,10.08,11.52,12.4,55.5,1015.62,0,0,0,0,0.027008
2020/07/16 02:44:00.000,n,237,8.28,6.48,9.36,12.4,55.7,1015.62,0,0,0,0,0.023499
2020/07/16 02:45:00.000,n,266,8.28,7.2,9.36,12.4,55.6,1015.62,0,0,0,0,0.022659
2020/07/16 02:46:00.000,n,248,7.56,6.84,8.28,12.4,55.7,1015.62,0,0,0,0,0.024376
2020/07/16 02:47:00.000,n,254,11.52,10.440002,13.32,12.3,55.7,1015.62,0,0,0,0,0.031357
2020/07/16 02:48:00.003,n,251,11.88,9.72,12.96,12.3,55.6,1015.62,0,0,0,0,0.030479
2020/07/16 02:49:00.001,n,244,12.24,10.8,14.04,12.3,55.5,1015.62,0,0,0,0,0.032234
2020/07/16 02:50:00.014,n,266,8.28,5.76,11.88,12.4,55.5,1015.62,0,0,0,0,0.033951
2020/07/16 02:51:00.011,n,250,11.88,11.16,13.32,12.4,55.5,1015.62,0,0,0,0,0.027008
2020/07/16 02:52:00.000,n,258,14.76,13.68,16.2,12.4,55.3,1015.62,0,0,0,0,0.027008
2020/07/16 02:53:00.000,n,257,10.440002,9,11.16,12.4,55.4,1015.62,0,0,0,0,0.028763
2020/07/16 02:54:00.002,n,243,8.28,7.56,9.36,12.4,55.6,1015.62,0,0,0,0,0.030479
2020/07/16 02:55:00.001,n,252,0.72,0.72,1.08,12.3,55.7,1015.62,0,0,0,0,0.027885
2020/07/16 02:56:00.000,n,252,15.12,14.04,15.84,12.3,55.6,1015.62,0,0,0,0,0.028763
2020/07/16 02:57:00.000,n,245,3.24,2.16,4.32,12.3,55.9,1015.62,0,0,0,0,0.028763
2020/07/16 02:58:00.008,n,265,7.92,6.84,8.28,12.3,55.9,1015.62,0,0,0,0,0.031357
2020/07/16 02:59:00.005,n,197,3.6,2.52,6.12,12.3,56,1015.62,0,0,0,0,0.029602
2020/07/16 03:00:00.002,n,236,9.36,8.28,10.440002,12.3,55.9,1015.62,0,0,0,0,0.031357
2020/07/16 03:01:00.000,n,236,3.24,1.44,4.68,12.3,56.1,1015.62,0,0,0,0,0.033112
2020/07/16 03:02:00.000,n,252,8.64,8.64,9.36,12.2,56.1,1015.62,0,0,0,0,0.029602
2020/07/16 03:03:00.000,n,232,6.12,5.4,7.92,12.2,56.2,1015.52,0,0,0,0,0.028763
2020/07/16 03:04:00.000,n,285,5.04,3.96,5.76,12.2,56.4,1015.52,0,0,0,0,0.027008
2020/07/16 03:05:00.005,n,253,7.56,7.2,9,12.2,56.3,1015.52,0,0,0,0,0.030479
2020/07/16 03:06:00.002,n,229,2.16,1.44,3.24,12.2,56.5,1015.52,0,0,0,0,0.028763
2020/07/16 03:07:00.000,n,257,5.4,3.24,6.48,12.1,56.6,1015.52,0,0,0,0,0.028763
2020/07/16 03:08:00.014,n,264,7.56,6.48,9,12.1,56.6,1015.52,0,0,0,0,0.027885
2020/07/16 03:09:00.011,n,265,8.64,7.92,11.52,12.1,56.7,1015.52,0,0,0,0,0.032234
2020/07/16 03:10:00.000,n,272,11.16,10.08,12.6,12.1,56.6,1015.42,0,0,0,0,0.028763
2020/07/16 03:11:00.000,n,247,16.2,12.96,18.72,12,56.4,1015.42,0,0,0,0,0.027885
2020/07/16 03:12:00.003,n,256,9,7.92,10.8,12.1,56.5,1015.42,0,0,0,0,0.029602
2020/07/16 03:13:00.000,n,248,16.919998,15.48,17.64,12.1,56.3,1015.42,0,0,0,0,0.030479
2020/07/16 03:14:00.000,n,264,14.04,12.6,15.12,12.1,56.4,1015.42,0,0,0,0,0.030479
2020/07/16 03:15:00.010,n,257,10.440002,9,11.52,12.1,56.4,1015.42,0,0,0,0,0.030479
2020/07/16 03:16:00.007,n,244,12.96,10.8,17.28,12.1,56.3,1015.32,0,0,0,0,0.026131
2020/07/16 03:17:00.005,n,238,9.36,3.24,11.52,12.1,56.3,1015.32,0,0,0,0,0.025253
2020/07/16 03:18:00.003,n,261,12.24,11.52,13.32,12.1,56.3,1015.32,0,0,0,0,0.025253
2020/07/16 03:19:00.000,n,262,14.76,13.32,16.56,12.1,56.3,1015.32,0,0,0,0,0.026131
2020/07/16 03:20:00.000,n,260,12.96,11.52,14.04,12,56.2,1015.32,0,0,0,0,0.028763
2020/07/16 03:21:00.000,n,281,10.08,8.64,13.32,12.1,56.2,1015.32,0,0,0,0,0.030479
2020/07/16 03:22:00.000,n,249,11.88,10.08,13.68,12,56.3,1015.32,0,0,0,0,0.033112
2020/07/16 03:23:00.004,n,238,7.56,6.12,7.92,12,56.5,1015.32,0,0,0,0,0.028763
2020/07/16 03:24:00.001,n,269,10.8,9.72,11.88,12,56.4,1015.32,0,0,0,0,0.026131
2020/07/16 03:25:00.000,n,254,11.16,7.2,15.12,12,56.5,1015.32,0,0,0,0,0.026131
2020/07/16 03:26:00.012,n,274,3.24,2.88,3.6,12,56.5,1015.32,0,0,0,0,0.025253
2020/07/16 03:27:00.009,n,235,13.32,11.52,15.84,12,56.2,1015.32,0,0,0,0,0.028763
2020/07/16 03:28:00.000,n,252,10.440002,9.72,11.16,12,56.2,1015.32,0,0,0,0,0.026131
2020/07/16 03:29:00.003,n,269,9,7.92,10.8,12,56.3,1015.32,0,0,0,0,0.025253
2020/07/16 03:30:00.000,n,258,7.2,5.76,8.28,12,56.5,1015.32,0,0,0,0,0.025253
2020/07/16 03:31:00.000,n,260,12.96,11.52,14.04,12,56.3,1015.32,0,0,0,0,0.026131
2020/07/16 03:32:00.000,n,258,13.68,10.440002,15.84,12,56.3,1015.32,0,0,0,0,0.022621
2020/07/16 03:33:00.007,n,251,8.64,6.84,11.16,12,56.4,1015.32,0,0,0,0,0.026131
2020/07/16 03:34:00.005,n,17,1.8,0,3.6,12,56.5,1015.32,0,0,0,0,0.022621
2020/07/16 03:35:00.001,n,231,9.72,8.64,10.8,12,56.5,1015.32,0,0,0,0,0.023537
2020/07/16 03:36:00.000,n,257,16.2,13.32,18.359998,12,56.4,1015.32,0,0,0,0,0.022621
2020/07/16 03:37:00.000,n,248,7.2,5.04,8.64,12,56.6,1015.32,0,0,0,0,0.027008
2020/07/16 03:38:00.000,n,266,7.56,5.76,11.52,12,56.6,1015.32,0,0,0,0,0.020905
2020/07/16 03:39:00.000,n,272,11.16,7.56,15.48,11.9,56.5,1015.22,0,0,0,0,0.024414
2020/07/16 03:40:00.004,n,257,6.48,5.76,7.2,11.9,56.6,1015.22,0,0,0,0,0.023537
2020/07/16 03:41:00.001,n,254,7.92,7.2,9,11.9,56.8,1015.22,0,0,0,0,0.027008
2020/07/16 03:42:00.000,n,283,5.04,4.68,6.48,11.9,56.9,1015.22,0,0,0,0,0.023537
2020/07/16 03:43:00.000,n,278,9.72,7.56,11.88,11.9,56.8,1015.22,0,0,0,0,0.025253
2020/07/16 03:44:00.009,n,284,10.8,8.28,11.52,11.9,56.9,1015.22,0,0,0,0,0.021782
2020/07/16 03:45:00.006,n,244,10.8,7.92,11.52,11.8,56.9,1015.22,0,0,0,0,0.020905
2020/07/16 03:46:00.000,n,278,10.8,9,15.48,11.8,56.8,1015.22,0,0,0,0,0.021782
2020/07/16 03:47:00.001,n,267,11.88,10.8,15.48,11.8,56.8,1015.22,0,0,0,0,0.030479
2020/07/16 03:48:00.000,n,238,2.16,1.44,2.52,11.8,57.1,1015.22,0,0,0,0,0.036583
2020/07/16 03:49:00.000,n,279,10.8,9.36,12.24,11.8,57,1015.22,0,0,0,0,0.040054
2020/07/16 03:50:00.004,n,267,8.28,6.48,9.72,11.8,57.1,1015.22,0,0,0,0,0.039215
2020/07/16 03:51:00.002,n,260,8.64,7.92,9.36,11.8,57.1,1015.22,0,0,0,0,0.039215
2020/07/16 03:52:00.000,n,268,10.440002,7.92,13.32,11.8,57,1015.32,0,0,0,0,0.034828
2020/07/16 03:53:00.013,n,255,12.96,12.24,14.4,11.8,56.9,1015.32,0,0,0,0,0.034828
2020/07/16 03:54:00.010,n,259,10.8,9.72,12.24,11.8,57.1,1015.32,0,0,0,0,0.03746
2020/07/16 03:55:00.000,n,246,8.64,7.56,11.16,11.8,57.2,1015.32,0,0,0,0,0.036583
2020/07/16 03:56:00.000,n,277,6.48,6.12,6.48,11.8,57.3,1015.32,0,0,0,0,0.033951
2020/07/16 03:57:00.002,n,271,7.92,6.84,9,11.8,57.3,1015.32,0,0,0,0,0.03746
2020/07/16 03:58:00.000,n,275,9.72,7.92,11.16,11.7,57.2,1015.32,0,0,0,0,0.033951
2020/07/16 03:59:00.000,n,276,7.2,5.76,9,11.7,57.3,1015.32,0,0,0,0,0.030479
2020/07/16 04:00:00.009,n,270,5.76,1.8,7.2,11.7,57.4,1015.32,0,0,0,0,0.033951
2020/07/16 04:01:00.006,n,267,7.92,6.48,9.36,11.7,57.5,1015.32,0,0,0,0,0.033951
2020/07/16 04:02:00.003,n,237,7.2,6.12,7.92,11.7,57.6,1015.22,0,0,0,0,0.030479
2020/07/16 04:03:00.017,n,275,10.440002,8.64,11.16,11.7,57.5,1015.22,0,0,0,0,0.033073
2020/07/16 04:04:00.000,n,258,12.6,11.52,13.68,11.7,57.5,1015.22,0,0,0,0,0.028725
2020/07/16 04:05:00.000,n,249,12.24,10.440002,13.32,11.6,57.5,1015.22,0,0,0,0,0.030479
2020/07/16 04:06:00.000,n,245,11.52,10.08,11.88,11.6,57.6,1015.22,0,0,0,0,0.033073
2020/07/16 04:07:00.006,n,252,5.76,3.96,7.56,11.6,57.7,1015.22,0,0,0,0,0.035706
2020/07/16 04:08:00.003,n,275,9.72,7.56,10.8,11.6,57.7,1015.22,0,0,0,0,0.028725
2020/07/16 04:09:00.000,n,262,14.76,13.68,15.48,11.6,57.5,1015.22,0,0,0,0,0.033073
2020/07/16 04:10:00.000,n,273,11.52,10.08,12.6,11.6,57.5,1015.22,0,0,0,0,0.029602
2020/07/16 04:11:00.010,n,266,11.16,9.72,14.4,11.6,57.5,1015.22,0,0,0,0,0.033951
2020/07/16 04:12:00.007,n,282,12.96,12.24,13.68,11.6,57.6,1015.22,0,0,0,0,0.030479
2020/07/16 04:13:00.000,n,276,10.08,9.36,10.8,11.6,57.5,1015.12,0,0,0,0,0.030479
2020/07/16 04:14:00.000,n,224,4.68,2.16,7.56,11.6,57.6,1015.12,0,0,0,0,0.032234
2020/07/16 04:15:00.000,n,268,13.68,10.440002,18,11.6,57.4,1015.12,0,0,0,0,0.033951
2020/07/16 04:16:00.000,n,271,4.32,1.44,8.64,11.6,57.6,1015.12,0,0,0,0,0.032234
2020/07/16 04:17:00.008,n,249,12.6,11.52,14.04,11.6,57.3,1015.12,0,0,0,0,0.034828
2020/07/16 04:18:00.006,n,238,7.2,6.84,7.92,11.6,57.5,1015.12,0,0,0,0,0.028725
2020/07/16 04:19:00.002,n,240,7.92,5.76,9.72,11.6,57.5,1015.12,0,0,0,0,0.036583
2020/07/16 04:20:00.000,n,250,10.8,9.72,12.24,11.6,57.4,1015.12,0,0,0,0,0.030479
2020/07/16 04:21:00.013,n,275,13.68,11.88,15.12,11.7,57.3,1015.12,0,0,0,0,0.025253
2020/07/16 04:22:00.000,n,253,10.8,9,14.04,11.7,57.1,1015.22,0,0,0,0,0.029602
2020/07/16 04:23:00.000,n,276,11.16,10.440002,12.24,11.7,57.2,1015.22,0,0,0,0,0.028725
2020/07/16 04:24:00.005,n,308,7.2,5.4,9.72,11.7,57.6,1015.22,0,0,0,0,0.02697
2020/07/16 04:25:00.002,n,267,10.440002,7.56,11.88,11.7,57.2,1015.22,0,0,0,0,0.030479
2020/07/16 04:26:00.000,n,270,12.96,9.72,15.84,11.7,57.2,1015.22,0,0,0,0,0.032234
2020/07/16 04:27:00.000,n,267,10.440002,6.84,11.88,11.7,57.3,1015.22,0,0,0,0,0.02697
2020/07/16 04:28:00.010,n,240,8.64,3.24,12.6,11.7,56.8,1015.22,0,0,0,0,0.029602
2020/07/16 04:29:00.007,n,225,11.16,10.440002,11.88,11.7,57.1,1015.22,0,0,0,0,0.02697
2020/07/16 04:30:00.005,n,266,5.76,3.6,9.36,11.7,57.2,1015.32,0,0,0,0,0.027885
2020/07/16 04:31:00.000,n,259,6.84,6.48,7.56,11.7,57.1,1015.32,0,0,0,0,0.02697
2020/07/16 04:32:00.000,n,259,10.08,8.28,12.24,11.7,57.1,1015.32,0,0,0,0,0.024376
2020/07/16 04:33:00.000,n,260,12.96,12.24,14.4,11.8,56.9,1015.32,0,0,0,0,0.025253
2020/07/16 04:34:00.000,n,282,7.2,4.68,9.36,11.8,57,1015.32,0,0,0,0,0.029602
2020/07/16 04:35:00.007,n,260,11.52,8.28,13.32,11.8,56.9,1015.32,0,0,0,0,0.025253
2020/07/16 04:36:00.004,n,291,11.16,8.64,14.04,11.8,56.9,1015.32,0,0,0,0,0.027885
2020/07/16 04:37:00.002,n,230,9.72,8.64,11.52,11.8,56.9,1015.32,0,0,0,0,0.027885
2020/07/16 04:38:00.000,n,254,9.36,8.64,10.8,11.8,57,1015.32,0,0,0,0,0.02697
2020/07/16 04:39:00.013,n,272,9,6.84,12.24,11.8,57,1015.42,0,0,0,0,0.020905
2020/07/16 04:40:00.000,n,256,13.32,12.96,14.04,11.7,56.9,1015.42,0,0,0,0,0.024376
2020/07/16 04:41:00.000,n,278,10.8,9.36,12.24,11.7,57,1015.42,0,0,0,0,0.026131
2020/07/16 04:42:00.004,n,275,10.8,9,12.6,11.7,57,1015.42,0,0,0,0,0.024376
2020/07/16 04:43:00.001,n,268,14.4,11.88,16.2,11.7,56.9,1015.42,0,0,0,0,0.026131
2020/07/16 04:44:00.000,n,252,13.68,11.88,15.12,11.7,57,1015.42,0,0,0,0,0.023537
2020/07/16 04:45:00.000,n,266,13.32,11.52,15.48,11.7,57,1015.32,0,0,0,0,0.026131
2020/07/16 04:46:00.009,n,292,10.08,7.92,12.24,11.7,57.2,1015.32,0,0,0,0,0.022621
2020/07/16 04:47:00.006,n,262,15.84,14.04,17.64,11.7,56.8,1015.32,0,0,0,0,0.02964
2020/07/16 04:48:00.016,n,235,6.12,0.72,8.28,11.7,57.3,1015.42,0,0,0,0,0.03315
2020/07/16 04:49:00.000,n,250,5.76,3.96,7.92,11.7,57.3,1015.42,0,0,0,0,0.033989